Mount Pleasant, TX

5:06 PM CDT on June 24, 2018 (GMT -0500)
Mount Pleasant

Weather History for KOSA - October, 2017

Change the Weather History Date:

Thursday, October 12, 2017

  Actual Average (KGGG) Record (KGGG)
Temperature  
Mean Temperature 67 °F -  
Max Temperature 84 °F 76 °F 96 °F (1963)
Min Temperature 51 °F 54 °F 38 °F (1946)
Cooling Degree Days 2    
Growing Degree Days 17 (Base 50)    
Moisture  
Dew Point 56 °F    
Average Humidity 73    
Maximum Humidity 99    
Minimum Humidity 39    
Precipitation  
Precipitation 0.00 in - - ()
Sea Level Pressure  
Sea Level Pressure 30.10 in    
Wind  
Wind Speed 1 mph (ESE)    
Max Wind Speed 7 mph    
Max Gust Speed -    
Visibility 10 miles    
Events      
Averages and records for this station are not official NWS values.
T = Trace of Precipitation, MM = Missing Value Source: NWS Daily Summary

Daily Weather History Graph

Daily Weather History Graph

Search for Another Location

Airport or City:

Astronomy

Oct. 12, 2017 Rise Set
Actual Time 7:22 AM CDT 6:49 PM CDT
Civil Twilight 6:57 AM CDT 7:14 PM CDT
Nautical Twilight 6:28 AM CDT 7:43 PM CDT
Astronomical Twilight 5:59 AM CDT 8:11 PM CDT
Moon 12:06 AM CDT (10/12) 2:23 PM CDT (10/12)
Length of Visible Light 12h 17m
Length of Day
11h 27m
Waning Gibbous, 48% of the Moon is Illuminated
Oct 12
Waning Gibbous
Oct 19
New
Oct 27
First Quarter
Nov 4
Full
Nov 10
Last Quarter

Hourly Weather History & Observations

Time (CDT) Temp. Heat Index Dew Point Humidity Pressure Visibility Wind Dir Wind Speed Gust Speed Precip Events Conditions
12:15 AM 54.7 °F - 54.1 °F 98% 30.12 in 10.0 mi Calm Calm - N/A   Clear
12:35 AM 55.0 °F - 54.0 °F 96% 30.12 in 10.0 mi Calm Calm - N/A   Clear
12:55 AM 54.5 °F - 53.8 °F 97% 30.11 in 10.0 mi Calm Calm - N/A   Clear
1:15 AM 55.8 °F - 53.6 °F 92% 30.11 in 10.0 mi Calm Calm - N/A   Clear
1:35 AM 55.2 °F - 53.1 °F 92% 30.12 in 10.0 mi Calm Calm - N/A   Clear
1:55 AM 52.7 °F - 52.0 °F 97% 30.12 in 10.0 mi Calm Calm - N/A   Clear
2:15 AM 53.2 °F - 53.1 °F 99% 30.12 in 10.0 mi Calm Calm - N/A   Clear
2:35 AM 54.3 °F - 53.1 °F 95% 30.12 in 10.0 mi Calm Calm - N/A   Clear
2:55 AM 53.6 °F - 53.1 °F 98% 30.12 in 10.0 mi Calm Calm - N/A   Clear
3:15 AM 52.5 °F - 52.3 °F 99% 30.12 in 10.0 mi Calm Calm - N/A   Clear
3:35 AM 53.8 °F - 53.1 °F 97% 30.12 in 10.0 mi North 3.5 mph - N/A   Clear
3:55 AM 52.7 °F - 52.2 °F 98% 30.11 in 10.0 mi Calm Calm - N/A   Clear
4:15 AM 52.2 °F - 51.8 °F 99% 30.11 in 10.0 mi Calm Calm - N/A   Clear
4:35 AM 52.3 °F - 52.0 °F 99% 30.12 in 10.0 mi Calm Calm - N/A   Clear
4:55 AM 53.4 °F - 52.2 °F 95% 30.12 in 10.0 mi Calm Calm - N/A   Clear
5:15 AM 52.9 °F - 52.2 °F 97% 30.12 in 10.0 mi Calm Calm - N/A   Clear
5:35 AM 53.1 °F - 52.0 °F 96% 30.13 in 10.0 mi Calm Calm - N/A   Clear
5:55 AM 52.7 °F - 52.3 °F 99% 30.13 in 10.0 mi Calm Calm - N/A   Clear
6:15 AM 52.3 °F - 51.8 °F 98% 30.14 in 10.0 mi Calm Calm - N/A   Clear
6:35 AM 53.1 °F - 52.3 °F 97% 30.14 in 10.0 mi NNE 3.5 mph - N/A   Clear
6:55 AM 52.9 °F - 51.8 °F 96% 30.15 in 10.0 mi Calm Calm - N/A   Clear
7:15 AM 51.8 °F - 51.3 °F 98% 30.15 in 10.0 mi Calm Calm - N/A   Clear
7:35 AM 52.5 °F - 52.0 °F 98% 30.15 in 10.0 mi Calm Calm - N/A   Clear
7:55 AM 53.8 °F - 53.1 °F 97% 30.15 in 10.0 mi Calm Calm - N/A   Clear
8:15 AM 55.9 °F - 54.5 °F 95% 30.16 in 10.0 mi Calm Calm - N/A   Clear
8:35 AM 58.1 °F - 55.2 °F 90% 30.16 in 10.0 mi ENE 3.5 mph - N/A   Clear
8:55 AM 60.1 °F - 55.9 °F 86% 30.17 in 10.0 mi Calm Calm - N/A   Clear
9:15 AM 62.6 °F - 56.7 °F 81% 30.17 in 10.0 mi ENE 3.5 mph - N/A   Clear
9:35 AM 65.1 °F - 57.0 °F 75% 30.17 in 10.0 mi East 3.5 mph - N/A   Clear
9:55 AM 66.6 °F - 57.6 °F 73% 30.17 in 10.0 mi ESE 3.5 mph - N/A   Clear
10:15 AM 68.7 °F - 58.5 °F 70% 30.16 in 10.0 mi SE 4.6 mph - N/A   Clear
10:35 AM 69.6 °F - 58.3 °F 67% 30.16 in 10.0 mi East 3.5 mph - N/A   Clear
10:55 AM 71.4 °F - 58.1 °F 63% 30.16 in 10.0 mi SSE 4.6 mph - N/A   Clear
11:15 AM 72.7 °F - 58.6 °F 61% 30.16 in 10.0 mi South 4.6 mph - N/A   Clear
11:35 AM 73.6 °F - 58.6 °F 59% 30.15 in 10.0 mi SE 5.8 mph - N/A   Clear
11:55 AM 75.2 °F - 58.3 °F 56% 30.14 in 10.0 mi Calm Calm - N/A   Clear
12:15 PM 76.8 °F - 57.4 °F 51% 30.14 in 10.0 mi East 4.6 mph - N/A   Clear
12:35 PM 77.5 °F - 58.1 °F 51% 30.13 in 10.0 mi East 3.5 mph - N/A   Clear
12:55 PM 78.1 °F - 57.2 °F 49% 30.12 in 10.0 mi Calm Calm - N/A   Clear
1:15 PM 78.8 °F - 56.7 °F 46% 30.11 in 10.0 mi Calm Calm - N/A   Clear
1:35 PM 80.1 °F 80.4 °F 56.8 °F 45% 30.10 in 10.0 mi East 4.6 mph - N/A   Clear
1:55 PM 80.8 °F 80.6 °F 55.2 °F 41% 30.09 in 10.0 mi ESE 3.5 mph - N/A   Clear
2:15 PM 80.6 °F 80.3 °F 53.8 °F 39% 30.08 in 10.0 mi ESE 4.6 mph - N/A   Clear
2:35 PM 81.9 °F 81.3 °F 55.2 °F 40% 30.07 in 10.0 mi East 5.8 mph - N/A   Clear
2:55 PM 81.9 °F 81.3 °F 55.6 °F 40% 30.06 in 10.0 mi Calm Calm - N/A   Clear
3:15 PM 82.8 °F 82.1 °F 55.9 °F 40% 30.05 in 10.0 mi East 4.6 mph - N/A   Clear
3:35 PM 82.9 °F 82.3 °F 56.3 °F 40% 30.05 in 10.0 mi Calm Calm - N/A   Clear
3:55 PM 83.1 °F 82.4 °F 56.1 °F 40% 30.05 in 7.0 mi SE 6.9 mph - N/A   Clear
4:15 PM 83.5 °F 82.6 °F 55.8 °F 39% 30.05 in 10.0 mi East 4.6 mph - N/A   Clear
4:35 PM 83.1 °F 82.4 °F 56.1 °F 40% 30.04 in 10.0 mi ESE 3.5 mph - N/A   Clear
4:55 PM 83.3 °F 82.5 °F 56.1 °F 39% 30.04 in 10.0 mi Calm Calm - N/A   Clear
5:15 PM 82.6 °F 82.0 °F 56.3 °F 40% 30.03 in 10.0 mi ESE 3.5 mph - N/A   Clear
5:35 PM 82.8 °F 82.2 °F 56.7 °F 41% 30.03 in 10.0 mi ESE 4.6 mph - N/A   Clear
5:55 PM 81.7 °F 81.6 °F 57.9 °F 44% 30.03 in 10.0 mi ESE 3.5 mph - N/A   Clear
6:15 PM 80.2 °F 80.7 °F 58.3 °F 47% 30.03 in 10.0 mi ESE 3.5 mph - N/A   Clear
6:35 PM 80.1 °F 80.6 °F 58.1 °F 47% 30.04 in 10.0 mi Calm Calm - N/A   Clear
6:55 PM 76.6 °F - 58.8 °F 54% 30.03 in 10.0 mi ESE 4.6 mph - N/A   Clear
7:15 PM 73.8 °F - 60.8 °F 64% 30.04 in 10.0 mi Calm Calm - N/A   Clear
7:35 PM 73.2 °F - 60.4 °F 64% 30.04 in 10.0 mi ENE 3.5 mph - N/A   Clear
7:55 PM 72.7 °F - 60.3 °F 65% 30.05 in 10.0 mi East 3.5 mph - N/A   Clear
8:15 PM 72.7 °F - 59.0 °F 62% 30.05 in 10.0 mi Calm Calm - N/A   Clear
8:35 PM 70.7 °F - 59.4 °F 67% 30.05 in 10.0 mi Calm Calm - N/A   Clear
8:55 PM 69.1 °F - 60.1 °F 73% 30.06 in 10.0 mi Calm Calm - N/A   Clear
9:15 PM 69.3 °F - 60.8 °F 74% 30.06 in 10.0 mi Calm Calm - N/A   Clear
9:35 PM 64.4 °F - 61.7 °F 91% 30.07 in 10.0 mi Calm Calm - N/A   Clear
9:55 PM 65.8 °F - 61.9 °F 87% 30.07 in 10.0 mi ESE 3.5 mph - N/A   Clear
10:15 PM 64.6 °F - 61.5 °F 90% 30.07 in 10.0 mi Calm Calm - N/A   Clear
10:35 PM 66.0 °F - 60.3 °F 82% 30.07 in 10.0 mi SE 3.5 mph - N/A   Clear
10:55 PM 66.2 °F - 59.9 °F 80% 30.08 in 10.0 mi ESE 3.5 mph - N/A   Clear
11:15 PM 66.4 °F - 59.9 °F 80% 30.08 in 10.0 mi SE 3.5 mph - N/A   Clear
11:35 PM 65.7 °F - 59.2 °F 80% 30.08 in 10.0 mi Calm Calm - N/A   Clear
11:55 PM 64.9 °F - 59.2 °F 82% 30.08 in 10.0 mi SE 3.5 mph - N/A   Clear